DW6386 Weather Reports


time (UTC)temp
C
wind
direction
speed
KPH
gust
KPH
rain 1hr
cm
rain 24hr
cm
rain mn
cm
humidity
%
barometer
mb
20260905213051 25 144 0.0 1.6 0.00 1.24 1.24 90 1010.1
20260905211549 25 295 0.0 3.2 0.00 1.24 1.24 93 1010.4
20260905210057 24 176 0.0 0.0 0.00 1.24 1.24 94 1010.7
20260905204552 24 281 0.0 6.4 0.00 1.24 1.24 94 1010.7
20260905203101 24 130 0.0 0.0 0.00 1.24 1.24 95 1010.6
20260905201543 24 130 0.0 1.6 0.00 1.24 1.24 95 1010.8
20260905200043 24 146 0.0 0.0 0.00 1.24 1.24 95 1010.9
20260905194538 23 146 0.0 1.6 0.00 1.24 1.24 95 1011.3
20260905191510 23 143 0.0 3.2 0.00 1.24 1.24 95 1011.0
20260905190009 23 95 0.0 14.5 0.00 1.24 1.24 94 1012.0
20260905184512 23 92 1.6 12.9 1.24 1.24 1.24 93 1012.4
20260905183008 23 48 0.0 4.8 1.24 1.24 1.24 93 1011.9
20260905181506 24 150 0.0 1.6 1.24 1.24 1.24 89 1012.2
20260905180003 26 187 0.0 14.5 1.24 1.24 1.24 80 1012.3
20260905174508 32 163 0.0 4.8 0.00 0.00 0.00 71 1011.8
20260905173000 32 278 1.6 6.4 0.00 0.00 0.00 70 1011.2
20260905171634 32 60 0.0 0.0 0.00 0.00 0.00 69 1011.4
20260905170105 33 81 0.0 0.0 0.00 0.00 0.00 62 1011.6
20260905164556 33 292 0.0 3.2 0.00 0.00 0.00 65 1011.9
20260905163055 32 18 0.0 6.4 0.00 0.00 0.00 71 1012.2
20260905161547 31 43 0.0 3.2 0.00 0.00 0.00 71 1012.2
20260905160044 30 91 0.0 3.2 0.00 0.00 0.00 77 1012.2
20260905154554 30 231 0.0 1.6 0.00 0.00 0.00 77 1012.3
20260905153039 29 200 0.0 0.0 0.00 0.00 0.00 78 1012.4
20260905151536 28 198 0.0 0.0 0.00 0.00 0.00 77 1012.5
20260905150041 28 198 0.0 0.0 0.00 0.00 0.00 80 1012.6
20260905144535 27 203 0.0 0.0 0.00 0.00 0.00 84 1012.7
20260905143028 27 207 0.0 1.6 0.00 0.00 0.00 85 1012.8
20260905141525 27 207 0.0 0.0 0.00 0.00 0.00 88 1012.8
20260905140022 26 196 0.0 0.0 0.00 0.00 0.00 91 1012.7
20260905134522 25 196 0.0 0.0 0.00 0.00 0.00 95 1012.7
20260905133015 25 198 0.0 0.0 0.00 0.00 0.00 96 1013.0
20260905131529 24 113 0.0 0.0 0.00 0.00 0.00 97 1013.1
20260905130011 23 113 0.0 0.0 0.00 0.00 0.00 98 1013.1
20260905124511 23 113 0.0 0.0 0.00 0.00 0.00 98 1013.2
20260905123009 23 113 0.0 0.0 0.00 0.00 0.00 98 1013.1
20260905121508 22 113 0.0 0.0 0.00 0.00 0.00 98 1012.9
20260905120019 22 113 0.0 0.0 0.00 0.00 0.00 98 1012.8
20260905114513 22 113 0.0 0.0 0.00 0.00 0.00 98 1012.7
20260905113003 21 113 0.0 0.0 0.00 0.00 0.00 98 1012.5
20260905111501 22 113 0.0 0.0 0.00 0.00 0.00 97 1012.2
20260905110001 22 113 0.0 0.0 0.00 0.00 0.00 98 1012.1
20260905104619 22 113 0.0 0.0 0.00 0.00 0.00 98 1012.1
20260905103100 22 113 0.0 0.0 0.00 0.00 0.00 97 1012.0
20260905101558 22 113 0.0 0.0 0.00 0.00 0.00 97 1011.8
20260905100058 22 113 0.0 0.0 0.00 0.00 0.00 97 1011.7
20260905094715 22 113 0.0 0.0 0.00 0.00 0.00 97 1011.6
20260905093108 22 113 0.0 0.0 0.00 0.00 0.00 97 1011.4
20260905091600 22 113 0.0 0.0 0.00 0.00 0.00 97 1011.3
20260905090052 22 113 0.0 0.0 0.00 0.00 0.00 96 1011.4
20260905084602 22 113 0.0 0.0 0.00 0.00 0.00 97 1011.6
20260905083050 22 113 0.0 0.0 0.00 0.00 0.00 97 1011.7
20260905081549 22 113 0.0 0.0 0.00 0.00 0.00 96 1011.7
20260905074558 22 113 0.0 0.0 0.00 0.00 0.00 95 1011.8
20260905073052 22 113 0.0 0.0 0.00 0.00 0.00 96 1011.9
20260905071549 22 113 0.0 0.0 0.00 0.00 0.00 96 1011.9
20260905070044 22 113 0.0 0.0 0.00 0.00 0.00 95 1011.9
20260905064543 22 113 0.0 0.0 0.00 0.00 0.00 95 1012.0
20260905063042 23 113 0.0 0.0 0.00 0.00 0.00 94 1012.1
20260905061555 23 113 0.0 0.0 0.00 0.00 0.00 94 1012.0
20260905060058 23 113 0.0 0.0 0.00 0.00 0.00 93 1012.0
20260905054552 23 113 0.0 0.0 0.00 0.00 0.00 93 1012.1
20260905053036 23 113 0.0 0.0 0.00 0.00 0.00 93 1012.2
20260905051537 23 113 0.0 0.0 0.00 0.00 0.00 93 1012.2
20260905050030 23 113 0.0 0.0 0.00 0.00 0.00 92 1012.2
20260905044528 23 103 0.0 0.0 0.00 0.00 0.00 91 1012.2
20260905043027 23 103 0.0 0.0 0.00 0.00 0.00 91 1012.1
20260905041526 23 103 0.0 0.0 0.00 0.00 0.00 91 1012.1
20260905040022 24 103 0.0 0.0 0.00 0.00 0.00 91 1012.2
20260905034523 25 95 0.0 0.0 0.00 0.00 0.00 89 1012.2
20260905033021 25 94 0.0 0.0 0.00 0.00 0.00 88 1012.1
20260905031520 25 94 0.0 0.0 0.00 0.00 0.00 89 1012.2
20260905030020 25 94 0.0 0.0 0.00 0.00 0.00 87 1012.6
20260905024538 25 94 0.0 0.0 0.00 0.00 0.00 86 1012.6
20260905023022 25 94 0.0 0.0 0.00 0.00 0.00 87 1012.8
20260905021518 26 94 0.0 0.0 0.00 0.00 0.00 86 1012.8
20260905020017 26 94 0.0 0.0 0.00 0.00 0.00 85 1012.8
20260905014516 26 94 0.0 0.0 0.00 0.00 0.00 86 1012.8
20260905013018 26 94 0.0 0.0 0.00 0.00 0.00 84 1012.6
20260905011515 26 94 0.0 0.0 0.00 0.00 0.00 83 1012.6
20260905010014 27 94 0.0 0.0 0.00 0.00 0.00 81 1012.4
20260905004514 27 94 0.0 0.0 0.00 0.00 0.00 78 1012.4
20260905003015 28 94 0.0 0.0 0.00 0.00 0.00 77 1012.3
20260905001513 28 94 0.0 0.0 0.00 0.00 0.00 74 1012.2
20260905000013 29 94 0.0 0.0 0.00 0.00 0.00 75 1012.1
20260904234514 30 94 0.0 0.0 0.00 0.00 0.00 72 1012.1
20260904233012 31 94 0.0 0.0 0.00 0.00 0.00 67 1012.1
20260904231511 32 94 0.0 0.0 0.00 0.00 0.00 65 1012.0
20260904230011 32 92 0.0 1.6 0.00 0.00 0.00 62 1011.9
20260904224510 33 84 0.0 1.6 0.00 0.00 0.00 59 1011.7
20260904223010 33 91 0.0 0.0 0.00 0.00 0.00 60 1011.5
20260904221509 33 85 0.0 1.6 0.00 0.00 0.00 58 1011.5
20260904220009 33 79 0.0 3.2 0.00 0.00 0.00 56 1011.5
20260904214507 33 47 0.0 4.8 0.00 0.00 0.00 55 1011.6